FW4761 Weather Reports


time (UTC)temp
C
wind
direction
speed
KPH
gust
KPH
rain 1hr
cm
rain 24hr
cm
rain mn
cm
humidity
%
barometer
mb
20260509211508 31 150 4.8 12.9 0.00 0.00 0.00 39 973.1
20260509210505 31 117 3.2 12.9 0.00 0.00 0.00 39 973.2
20260509210005 31 355 4.8 12.9 0.00 0.00 0.00 40 973.4
20260509205505 31 108 6.4 14.5 0.00 0.00 0.00 40 973.4
20260509204458 31 165 4.8 11.3 0.00 0.00 0.00 41 973.6
20260509203951 31 119 4.8 14.5 0.00 0.00 0.00 41 973.7
20260509203444 30 128 6.4 16.1 0.00 0.00 0.00 42 973.7
20260509202938 31 94 3.2 16.1 0.00 0.00 0.00 43 973.8
20260509202433 31 96 3.2 9.7 0.00 0.00 0.00 43 973.8
20260509201927 30 93 4.8 11.3 0.00 0.00 0.00 41 973.9
20260509200914 31 167 4.8 16.1 0.00 0.00 0.00 42 974.0
20260509200408 31 136 6.4 16.1 0.00 0.00 0.00 45 974.1
20260509195356 30 71 4.8 14.5 0.00 0.00 0.00 44 974.1
20260509194345 30 84 3.2 16.1 0.00 0.00 0.00 46 974.3
20260509193839 31 78 3.2 16.1 0.00 0.00 0.00 43 974.3
20260509193333 30 101 4.8 16.1 0.00 0.00 0.00 46 974.3
20260509192320 30 128 6.4 12.9 0.00 0.00 0.00 46 974.4
20260509191815 30 49 8.0 16.1 0.00 0.00 0.00 47 974.4
20260509191309 30 49 6.4 16.1 0.00 0.00 0.00 46 974.6
20260509190803 30 33 4.8 16.1 0.00 0.00 0.00 49 974.5
20260509190257 30 55 6.4 16.1 0.00 0.00 0.00 48 974.5
20260509185751 30 37 6.4 14.5 0.00 0.00 0.00 46 974.6
20260509184232 30 84 8.0 14.5 0.00 0.00 0.00 50 974.8
20260509183727 29 46 8.0 16.1 0.00 0.00 0.00 52 974.8
20260509183221 29 105 4.8 16.1 0.00 0.00 0.00 53 974.8
20260509182714 29 103 3.2 14.5 0.00 0.00 0.00 55 974.9
20260509181703 29 355 6.4 16.1 0.00 0.00 0.00 51 974.9
20260509181156 29 92 4.8 16.1 0.00 0.00 0.00 55 975.0
20260509180650 28 346 3.2 14.5 0.00 0.00 0.00 57 975.0
20260509180145 28 112 4.8 16.1 0.00 0.00 0.00 55 975.0
20260509175639 28 76 8.0 16.1 0.00 0.00 0.00 55 975.1
20260509175133 28 69 6.4 16.1 0.00 0.00 0.00 58 975.2
20260509174120 28 355 4.8 12.9 0.00 0.00 0.00 60 975.4
20260509173615 28 34 6.4 12.9 0.00 0.00 0.00 61 975.5
20260509172603 27 25 3.2 14.5 0.00 0.00 0.00 63 975.6
20260509172057 27 331 4.8 14.5 0.00 0.00 0.00 63 975.6
20260509171551 27 78 4.8 16.1 0.00 0.00 0.00 63 975.7
20260509171044 27 35 3.2 16.1 0.00 0.00 0.00 64 975.7
20260509170539 27 350 6.4 14.5 0.00 0.00 0.00 64 975.9
20260509170032 27 346 4.8 14.5 0.00 0.00 0.00 64 975.9
20260509165020 27 26 3.2 12.9 0.00 0.00 0.00 65 975.9
20260509164514 26 336 4.8 9.7 0.00 0.00 0.00 65 976.0
20260509164008 26 312 3.2 12.9 0.00 0.00 0.00 66 976.0
20260509163503 26 349 4.8 12.9 0.00 0.00 0.00 67 976.0
20260509162957 26 325 6.4 12.9 0.00 0.00 0.00 66 976.1
20260509161954 26 349 6.4 12.9 0.00 0.00 0.00 66 976.1
20260509161452 26 285 4.8 12.9 0.00 0.00 0.00 67 976.1
20260509160953 26 355 3.2 12.9 0.00 0.00 0.00 68 976.1
20260509160453 26 355 3.2 11.3 0.00 0.00 0.00 67 976.2
20260509155953 26 309 3.2 11.3 0.00 0.00 0.00 67 976.1
20260509155453 25 355 4.8 9.7 0.00 0.00 0.00 68 976.0
20260509154952 25 346 4.8 11.3 0.00 0.00 0.00 67 976.1
20260509154453 25 349 4.8 11.3 0.00 0.00 0.00 68 976.1
20260509153953 25 293 4.8 11.3 0.00 0.00 0.00 68 976.0
20260509153453 25 272 6.4 14.5 0.00 0.00 0.00 68 975.9
20260509152453 25 282 4.8 11.3 0.00 0.00 0.00 69 976.1
20260509151953 25 284 4.8 12.9 0.00 0.00 0.00 70 976.1
20260509151448 24 294 6.4 12.9 0.00 0.00 0.00 70 976.1
20260509150949 24 279 4.8 11.3 0.00 0.00 0.00 71 976.0
20260509150448 23 312 3.2 9.7 0.00 0.00 0.00 73 975.9
20260509145948 23 290 3.2 8.0 0.00 0.00 0.00 74 975.9
20260509145449 23 288 1.6 6.4 0.00 0.00 0.00 74 975.9
20260509144948 23 287 1.6 11.3 0.00 0.00 0.00 74 975.9
20260509143448 22 286 3.2 9.7 0.00 0.00 0.00 75 975.8
20260509142949 22 284 4.8 11.3 0.00 0.00 0.00 75 975.9
20260509142448 22 277 4.8 11.3 0.00 0.00 0.00 75 976.0
20260509141948 22 279 4.8 12.9 0.00 0.00 0.00 76 976.1
20260509140948 21 304 6.4 12.9 0.00 0.00 0.00 77 975.8
20260509140449 21 281 4.8 12.9 0.00 0.00 0.00 78 975.8
20260509135949 21 287 4.8 9.7 0.00 0.00 0.00 79 975.9
20260509135448 20 310 4.8 9.7 0.00 0.00 0.00 80 975.9
20260509134439 20 308 4.8 11.3 0.00 0.00 0.00 80 975.9
20260509133933 20 296 4.8 11.3 0.00 0.00 0.00 81 976.0
20260509133428 20 298 4.8 11.3 0.00 0.00 0.00 82 976.0
20260509132922 20 297 3.2 8.0 0.00 0.00 0.00 83 975.8
20260509132415 19 294 4.8 8.0 0.00 0.00 0.00 84 975.9
20260509131910 19 292 4.8 11.3 0.00 0.00 0.00 85 976.0
20260509131410 18 291 4.8 12.9 0.00 0.00 0.00 86 976.0
20260509130911 18 293 4.8 12.9 0.00 0.00 0.00 86 976.0
20260509130410 18 288 6.4 12.9 0.00 0.00 0.00 87 976.0
20260509125908 17 286 6.4 12.9 0.00 0.00 0.00 87 976.0
20260509124909 17 299 4.8 8.0 0.00 0.00 0.00 88 975.9
20260509124410 17 297 6.4 8.0 0.00 0.00 0.00 88 976.0
20260509123402 17 317 4.8 8.0 0.00 0.00 0.00 89 975.8
20260509122902 17 319 4.8 8.0 0.00 0.00 0.00 89 975.8
20260509121900 17 0 3.2 8.0 0.00 0.00 0.00 89 975.6
20260509121400 17 344 1.6 4.8 0.00 0.00 0.00 89 975.6
20260509120900 17 345 0.0 0.0 0.00 0.00 0.00 89 975.5
20260509120400 16 344 0.0 0.0 0.00 0.00 0.00 89 975.4
20260509115359 17 344 0.0 0.0 0.00 0.00 0.00 89 975.3
20260509114902 16 344 0.0 0.0 0.00 0.00 0.00 89 975.3
20260509114356 17 345 0.0 0.0 0.00 0.00 0.00 89 975.2
20260509113850 16 346 0.0 0.0 0.00 0.00 0.00 88 975.0
20260509113343 17 346 0.0 0.0 0.00 0.00 0.00 88 974.9
20260509111825 17 348 0.0 0.0 0.00 0.00 0.00 88 974.5
20260509111319 17 348 0.0 0.0 0.00 0.00 0.00 88 974.5
20260509110813 17 348 0.0 0.0 0.00 0.00 0.00 88 974.5
20260509110307 17 348 0.0 0.0 0.00 0.00 0.00 87 974.4
20260509105256 17 347 0.0 0.0 0.00 0.00 0.00 87 974.3
20260509104750 18 347 0.0 0.0 0.00 0.00 0.00 87 974.3
20260509103737 18 348 0.0 0.0 0.00 0.00 0.00 87 974.3
20260509103231 18 348 0.0 0.0 0.00 0.00 0.00 87 974.3
20260509101714 18 348 1.6 8.0 0.00 0.00 0.00 87 974.2
20260509101208 18 347 3.2 9.7 0.00 0.00 0.00 87 974.2
20260509100702 18 348 4.8 9.7 0.00 0.00 0.00 87 974.1
20260509100156 18 42 4.8 9.7 0.00 0.00 0.00 87 974.0
20260509095143 18 61 4.8 11.3 0.00 0.00 0.00 87 973.9
20260509094638 18 53 4.8 9.7 0.00 0.00 0.00 87 973.8
20260509094131 18 46 4.8 9.7 0.00 0.00 0.00 87 973.8
20260509093625 19 40 6.4 11.3 0.00 0.00 0.00 87 973.8
20260509093119 19 42 6.4 14.5 0.00 0.00 0.00 87 973.7
20260509092614 19 38 8.0 14.5 0.00 0.00 0.00 87 973.7
20260509092108 19 355 8.0 16.1 0.00 0.00 0.00 87 973.7
20260509091055 19 355 8.0 19.3 0.00 0.00 0.00 87 973.7
20260509090550 19 355 8.0 17.7 0.00 0.00 0.00 86 973.7
20260509090044 20 40 11.3 17.7 0.00 0.00 0.00 86 973.8
20260509085537 20 38 8.0 14.5 0.00 0.00 0.00 86 973.7
20260509085034 20 40 6.4 14.5 0.00 0.00 0.00 86 974.0
20260509084533 20 341 4.8 12.9 0.00 0.00 0.00 86 974.0
20260509084034 20 17 3.2 11.3 0.00 0.00 0.00 86 973.9
20260509083532 20 24 4.8 9.7 0.00 0.00 0.00 86 973.9
20260509083032 20 25 6.4 12.9 0.00 0.00 0.00 85 974.1
20260509082531 20 13 6.4 12.9 0.00 0.00 0.00 85 974.1
20260509081032 20 31 4.8 16.1 0.00 0.00 0.00 85 974.1
20260509080532 20 59 4.8 16.1 0.00 0.00 0.00 84 974.1
20260509080032 20 22 6.4 16.1 0.00 0.00 0.00 84 974.0
20260509075532 21 46 8.0 16.1 0.00 0.00 0.00 83 973.9
20260509075032 21 9 9.7 22.5 0.00 0.00 0.00 83 973.7
20260509074531 21 35 12.9 25.7 0.00 0.00 0.00 82 973.7
20260509074032 21 9 14.5 25.7 0.00 0.00 0.00 81 973.4
20260509073531 21 9 16.1 25.7 0.00 0.00 0.00 80 973.1
20260509073031 22 15 17.7 29.0 0.00 0.00 0.00 78 972.9
20260509072526 22 355 19.3 30.6 0.00 0.00 0.00 76 972.8
20260509072025 23 326 25.7 41.8 0.00 0.00 0.00 73 972.7
20260509071526 23 10 24.1 41.8 0.00 0.00 0.00 69 972.4
20260509071026 25 355 16.1 37.0 0.00 0.00 0.00 65 971.8
20260509070526 26 0 16.1 29.0 0.00 0.00 0.00 47 972.1
20260509070025 24 181 14.5 30.6 0.00 0.00 0.00 55 971.5
20260509065526 22 172 14.5 30.6 0.00 0.00 0.00 66 972.0
20260509064529 21 0 11.3 30.6 0.00 0.00 0.00 83 972.6
20260509064029 21 191 4.8 25.7 0.00 0.00 0.00 83 973.3
20260509063529 21 292 8.0 25.7 0.00 0.00 0.00 83 973.9
20260509063030 21 0 11.3 25.7 0.00 0.00 0.00 83 974.2
20260509062525 21 0 11.3 38.6 0.00 0.00 0.00 83 974.2
20260509062025 21 0 12.9 38.6 0.00 0.00 0.00 83 973.9
20260509061526 21 0 16.1 37.0 0.00 0.00 0.00 83 974.5
20260509061025 21 0 19.3 37.0 0.00 0.00 0.00 83 974.1
20260509060526 21 266 17.7 33.8 0.00 0.00 0.00 83 973.9
20260509060025 21 0 17.7 32.2 0.00 0.00 0.00 83 973.7
20260509055025 21 0 11.3 24.1 0.00 0.00 0.00 84 974.4
20260509054526 21 0 14.5 27.4 0.00 0.00 0.00 84 974.6
20260509054025 21 0 14.5 27.4 0.00 0.00 0.00 84 974.2
20260509053026 20 0 9.7 20.9 0.00 0.00 0.00 84 974.2
20260509052526 20 0 9.7 20.9 0.00 0.00 0.00 85 974.4
20260509052026 20 0 12.9 29.0 0.00 0.00 0.00 85 974.9
20260509051023 20 0 12.9 24.1 0.00 0.00 0.00 85 974.7
20260509050521 20 0 12.9 24.1 0.00 0.00 0.00 85 974.8
20260509050019 20 0 14.5 22.5 0.00 0.00 0.00 85 974.3
20260509045018 20 0 9.7 19.3 0.00 0.00 0.00 84 974.5
20260509044516 20 0 11.3 19.3 0.00 0.00 0.00 84 975.0
20260509044017 20 0 9.7 19.3 0.00 0.00 0.00 84 974.9
20260509043515 21 0 8.0 16.1 0.00 0.00 0.00 84 975.3
20260509043016 21 0 11.3 19.3 0.00 0.00 0.00 83 975.3
20260509042013 21 0 9.7 14.5 0.00 0.00 0.00 82 975.1
20260509041512 21 195 6.4 12.9 0.00 0.00 0.00 82 975.6
20260509041012 21 222 4.8 12.9 0.00 0.00 0.00 81 975.8
20260509040510 21 209 6.4 12.9 0.00 0.00 0.00 81 975.6
20260509040008 21 241 6.4 17.7 0.00 0.00 0.00 82 975.9
20260509035509 21 313 12.9 27.4 0.00 0.00 0.00 82 976.7
20260509035008 20 346 16.1 33.8 0.00 0.00 0.00 83 976.7
20260509034508 20 329 9.7 33.8 0.00 0.00 0.00 83 976.8
20260509034009 20 0 1.6 14.5 0.00 0.00 0.00 82 975.8
20260509033008 20 0 4.8 12.9 0.00 0.00 0.00 82 974.4
20260509032511 20 166 3.2 8.0 0.00 0.00 0.00 82 974.6
20260509032005 20 0 3.2 8.0 0.00 0.00 0.00 82 974.7
20260509031458 20 0 4.8 12.9 0.00 0.00 0.00 82 974.5
20260509030446 21 0 4.8 14.5 0.00 0.00 0.00 81 974.2
20260509025939 21 0 3.2 8.0 0.00 0.00 0.00 81 974.4
20260509024422 21 0 6.4 20.9 0.00 0.00 0.00 80 973.8
20260509023916 21 0 8.0 20.9 0.00 0.00 0.00 79 973.8
20260509023410 21 0 11.3 20.9 0.00 0.00 0.00 79 973.6
20260509022904 21 0 14.5 22.5 0.00 0.00 0.00 79 973.2
20260509021852 21 0 11.3 19.3 0.00 0.00 0.00 78 973.1
20260509021345 21 0 6.4 16.1 0.00 0.00 0.00 78 973.4
20260509020840 21 0 3.2 12.9 0.00 0.00 0.00 77 973.9
20260509020333 22 0 3.2 12.9 0.00 0.00 0.00 77 974.2
20260509015827 22 0 3.2 9.7 0.00 0.00 0.00 77 974.4
20260509015322 22 0 4.8 9.7 0.00 0.00 0.00 77 974.3
20260509014310 22 0 4.8 9.7 0.00 0.00 0.00 77 973.8
20260509013804 22 173 4.8 14.5 0.00 0.00 0.00 77 973.2
20260509013258 22 171 6.4 14.5 0.00 0.00 0.00 76 972.9
20260509012752 22 186 8.0 16.1 0.00 0.00 0.00 75 972.6
20260509011233 22 201 11.3 22.5 0.00 0.00 0.00 74 971.8
20260509010727 22 175 11.3 20.9 0.00 0.00 0.00 73 971.7
20260509010221 23 177 12.9 20.9 0.00 0.00 0.00 72 971.8
20260509005715 23 203 11.3 20.9 0.00 0.00 0.00 72 972.2
20260509005210 23 167 9.7 16.1 0.00 0.00 0.00 71 972.5
20260509004157 23 174 11.3 19.3 0.00 0.00 0.00 70 972.6
20260509003651 23 184 9.7 17.7 0.00 0.00 0.00 70 972.7
20260509003146 24 199 12.9 20.9 0.00 0.00 0.00 70 972.7
20260509002134 24 188 9.7 22.5 0.00 0.00 0.00 69 972.9
20260509001627 24 215 11.3 22.5 0.00 0.00 0.00 69 972.8
20260509000625 25 0 12.9 25.7 0.00 0.00 0.00 69 972.6
20260509000124 25 186 12.9 25.7 0.00 0.00 0.00 69 972.6
20260508235624 25 178 12.9 22.5 0.00 0.00 0.00 68 972.5
20260508235124 25 178 14.5 27.4 0.00 0.00 0.00 68 972.3
20260508234621 25 174 14.5 27.4 0.00 0.00 0.00 67 972.2
20260508234122 25 178 16.1 27.4 0.00 0.00 0.00 68 972.2
20260508233622 25 176 14.5 25.7 0.00 0.00 0.00 67 972.1
20260508232619 26 184 12.9 25.7 0.00 0.00 0.00 66 972.0
20260508230618 26 198 17.7 33.8 0.00 0.00 0.00 66 972.3
20260508225618 26 163 14.5 25.7 0.00 0.00 0.00 65 972.3
20260508225118 26 179 12.9 24.1 0.00 0.00 0.00 65 972.4
20260508224611 26 188 12.9 19.3 0.00 0.00 0.00 65 972.5
20260508224105 26 199 11.3 22.5 0.00 0.00 0.00 65 972.5
20260508223102 26 181 12.9 22.5 0.00 0.00 0.00 66 972.6
20260508222102 26 179 11.3 20.9 0.00 0.00 0.00 64 972.5
20260508221602 26 180 11.3 20.9 0.00 0.00 0.00 63 972.6
20260508221102 26 215 11.3 20.9 0.00 0.00 0.00 64 972.7
20260508220601 26 169 11.3 22.5 0.00 0.00 0.00 64 972.6
20260508215601 26 175 11.3 24.1 0.00 0.00 0.00 64 972.9
20260508215103 26 198 14.5 24.1 0.00 0.00 0.00 64 973.0
20260508214601 26 167 14.5 24.1 0.00 0.00 0.00 64 973.1
20260508214058 26 153 14.5 29.0 0.00 0.00 0.00 64 972.8
20260508213557 26 151 14.5 29.0 0.00 0.00 0.00 64 972.9
20260508213057 26 192 12.9 25.7 0.00 0.00 0.00 65 972.8
20260508212558 26 180 12.9 25.7 0.00 0.00 0.00 64 972.9
20260508212057 26 173 12.9 27.4 0.00 0.00 0.00 63 973.0